Back to catalog

CZ-2D R/B

AliveSSO
NORAD 68379·ROCKET BODY·🇨🇳 China

Launched Mar 25, 2026 from Taiyuan Satellite Launch Center

Loading…

Next Passes (next 24 hours)

TLE

FreshSource: Space-Track

Epoch: Sep 13, 2026, 22:19 UTC

1 68379U 26062C   26256.93027820  .00005834  00000-0  17531-3 0  9991
2 68379  97.4964 267.3994 0049493 166.7048 193.5512 15.33591511 26340

Track CZ-2D R/B in real time with AllMySat

Download on the App Store